This is the latest recevied weather packets stored in our database for station/object KY4EF. If no packets are shown the sender has not sent any weather packets the latest 10 day(s).
| Time | Temp. | Humidity | Pressure | Rain* | Wind** | Luminosity | Snow |
|---|---|---|---|---|---|---|---|
| 1777398502 | 22.22° C | 75% | 1018.4 hPa | 0 mm | - | 771 W/m² | - |
| 1777398198 | 21.67° C | 71% | 1018.5 hPa | 0 mm | - | 689 W/m² | - |
| 1777397895 | 21.67° C | 73% | 1018.5 hPa | 0 mm | - | 777 W/m² | - |
| 1777397591 | 21.11° C | 72% | 1018.5 hPa | 0 mm | - | 642 W/m² | - |
| 1777397287 | 20.56° C | 77% | 1018.6 hPa | 0 mm | - | 682 W/m² | - |
| 1777396984 | 20° C | 77% | 1018.9 hPa | 0 mm | - | 707 W/m² | - |
| 1777396681 | 20.56° C | 77% | 1018.5 hPa | 0 mm | - | 258 W/m² | - |
| 1777396377 | 20° C | 78% | 1019 hPa | 0 mm | - | 394 W/m² | - |
| 1777396074 | 20° C | 80% | 1018.8 hPa | 0 mm | - | 755 W/m² | - |
| 1777395770 | 20.56° C | 75% | 1018.9 hPa | 0 mm | - | 387 W/m² | - |
| 1777395465 | 21.67° C | 75% | 1019 hPa | 0 mm | - | 748 W/m² | - |
| 1777395163 | 20.56° C | 78% | 1019.1 hPa | 0 mm | - | 717 W/m² | - |
| 1777394859 | 20.56° C | 75% | 1019 hPa | 0 mm | - | 749 W/m² | - |
| 1777394555 | 20° C | 79% | 1019.2 hPa | 0 mm | - | 782 W/m² | - |
| 1777394252 | 18.89° C | 81% | 1019.2 hPa | 0 mm | - | 645 W/m² | - |
| 1777393948 | 18.33° C | 91% | 1019.4 hPa | 0 mm | - | 272 W/m² | - |
| 1777393647 | 18.89° C | 91% | 1019.6 hPa | 0 mm | - | 309 W/m² | - |
| 1777393343 | 18.33° C | 94% | 1019.6 hPa | 0 mm | - | 522 W/m² | - |
| 1777393040 | 16.67° C | 93% | 1019.7 hPa | 0 mm | - | 358 W/m² | - |
| 1777392736 | 17.22° C | 93% | 1019.5 hPa | 0 mm | - | 543 W/m² | - |
| 1777392432 | 17.22° C | 96% | 1019.4 hPa | 0 mm | - | 610 W/m² | - |
| 1777392128 | 16.11° C | 96% | 1019.4 hPa | 0 mm | - | 745 W/m² | - |
| 1777391823 | 16.11° C | 99% | 1019.5 hPa | 0 mm | - | 638 W/m² | - |
| 1777391518 | 15° C | 99% | 1019.5 hPa | 0 mm | - | 529 W/m² | - |
| 1777391215 | 15° C | 98% | 1019.6 hPa | 0 mm | - | 345 W/m² | - |
* Rain latest hour (hover to see other rain measurements)
** Current wind speed in m/s (hover to see current wind gust speed)